Location: Clair
(33.8067°N, 117.9845°W)
Time: 17:29:41
(UTC+00:00)

Cosmos 1378 Rocket - Pass Details

Date: 14 February 2026
Orbit: 594 x 620 km, 82.5° (Epoch: 8 March)

Event Time Altitude Azimuth Distance (km) Brightness Sun altitude
Exits shadow 12:31:45 60° 85° (E) 685 3.9 -26.6°
Drops below altitude 10° 12:35:56 10° 163° (SSE) 1,932 6.3 -25.8°
Sets 12:38:09 0° 167° (SSE) 2,835 7.1 -25.3°
